Sofia, Bulgaria

9:01 PM EET on March 21, 2019 (GMT +0200)
Sofia

Weather History for LBSF - March, 2019

Change the Weather History Date:

Thursday, March 21, 2019

  Actual Average Record
Temperature  
Mean Temperature 49 °F -  
Max Temperature 55 °F 57 °F 73 °F (2004)
Min Temperature 43 °F 38 °F 23 °F (1998)
Degree Days  
Heating Degree Days 16    
Moisture  
Dew Point 38 °F    
Average Humidity 64    
Maximum Humidity 81    
Minimum Humidity 42    
Precipitation  
Precipitation 0.00 in 0.06 in - ()
Sea Level Pressure  
Sea Level Pressure 30.42 in    
Wind  
Wind Speed 4 mph ()    
Max Wind Speed 12 mph    
Max Gust Speed -    
Visibility 6.3 miles    
Events      
Averages and records for this station are not official NWS values.
T = Trace of Precipitation, MM = Missing Value Source: Averaged Metar Reports

Daily Weather History Graph

Daily Weather History Graph

Search for Another Location

Airport or City:

Astronomy

Mar. 21, 2019 Rise Set
Actual Time 6:28 AM EET 6:39 PM EET
Civil Twilight 6:00 AM EET 7:07 PM EET
Nautical Twilight 5:27 AM EET 7:40 PM EET
Astronomical Twilight 4:54 AM EET 8:14 PM EET
Moon 7:13 PM EET 6:59 AM EET
Length of Visible Light 13h 06m
Length of Day
12h 10m
Full, 100% of the Moon is Illuminated
Today
Full
Mar 28
Last Quarter
Apr 5
New
Apr 12
First Quarter
Apr 19
Full

Hourly Weather History & Observations

Time (EET) Temp. Windchill Dew Point Humidity Pressure Visibility Wind Dir Wind Speed Gust Speed Precip Events Conditions
12:00 AM 50.0 °F - 39.2 °F 66% 30.39 in 6.2 mi Variable 2.3 mph - N/A   Overcast
12:30 AM 50.0 °F - 39.2 °F 66% 30.39 in 6.2 mi ESE 4.6 mph - N/A   Overcast
1:00 AM 50.0 °F - 39.2 °F 66% 30.39 in 6.2 mi East 3.5 mph - N/A   Overcast
1:30 AM 50.0 °F - 39.2 °F 66% 30.39 in 6.2 mi East 2.3 mph - N/A   Mostly Cloudy
2:00 AM 49 °F - 39 °F 58% 30.40 in 7 mi East 2.2 mph - -   Mostly Cloudy
2:00 AM 50.0 °F - 39.2 °F 66% 30.39 in 6.2 mi NE 3.5 mph - N/A   Overcast
2:30 AM 48.2 °F - 39.2 °F 71% 30.39 in 6.2 mi NE 3.5 mph - N/A   Mostly Cloudy
3:00 AM 46.4 °F 43.5 °F 39.2 °F 76% 30.39 in 6.2 mi East 5.8 mph - N/A   Overcast
3:30 AM 46.4 °F 44.3 °F 39.2 °F 76% 30.39 in 6.2 mi SE 4.6 mph - N/A   Mostly Cloudy
4:00 AM 44.6 °F 42.2 °F 39.2 °F 81% 30.39 in 6.2 mi ESE 4.6 mph - N/A   Mostly Cloudy
4:30 AM 44.6 °F 43.1 °F 37.4 °F 76% 30.39 in 6.2 mi North 3.5 mph - N/A   Mostly Cloudy
5:00 AM 46 °F - 39 °F 69% 30.41 in 7 mi NW 2.2 mph - -   Mostly Cloudy
5:00 AM 44.6 °F 40.7 °F 37.4 °F 76% 30.39 in 6.2 mi WNW 6.9 mph - N/A   Mostly Cloudy
5:30 AM 44.6 °F 40.7 °F 35.6 °F 71% 30.42 in 6.2 mi West 6.9 mph - N/A   Mostly Cloudy
6:00 AM 44.6 °F 41.4 °F 37.4 °F 76% 30.42 in 6.2 mi West 5.8 mph - N/A   Overcast
6:30 AM 44.6 °F 41.4 °F 35.6 °F 71% 30.42 in 6.2 mi West 5.8 mph - N/A   Overcast
7:00 AM 44.6 °F 41.4 °F 37.4 °F 76% 30.42 in 5.0 mi West 5.8 mph - N/A   Overcast
7:30 AM 44.6 °F 41.4 °F 35.6 °F 71% 30.42 in 5.0 mi WNW 5.8 mph - N/A   Overcast
8:00 AM 45 °F - 36 °F 62% 30.44 in 6 mi West 4.5 mph - -   Mostly Cloudy
8:00 AM 44.6 °F 41.4 °F 35.6 °F 71% 30.45 in 6.2 mi West 5.8 mph - N/A   Overcast
8:30 AM 46.4 °F 44.3 °F 35.6 °F 66% 30.45 in 6.2 mi West 4.6 mph - N/A   Overcast
9:00 AM 46.4 °F 45.2 °F 35.6 °F 66% 30.45 in 6.2 mi NNW 3.5 mph - N/A   Overcast
9:30 AM 46.4 °F - 37.4 °F 71% 30.48 in 6.2 mi Variable 2.3 mph - N/A   Overcast
10:00 AM 46.4 °F - 37.4 °F 71% 30.48 in 6.2 mi Variable 2.3 mph - N/A   Overcast
10:30 AM 48.2 °F - 37.4 °F 66% 30.48 in 6.2 mi Variable 1.2 mph - N/A   Overcast
11:00 AM 47 °F - 38 °F 60% 30.47 in 6 mi Calm Calm - -   Overcast
11:00 AM 48.2 °F - 39.2 °F 71% 30.48 in 6.2 mi Variable 1.2 mph - N/A   Overcast
11:30 AM 50.0 °F - 39.2 °F 66% 30.48 in 6.2 mi Variable 2.3 mph - N/A   Overcast
12:00 PM 50.0 °F - 39.2 °F 66% 30.48 in 6.2 mi WSW 4.6 mph - N/A   Mostly Cloudy
12:30 PM 51.8 °F - 39.2 °F 62% 30.45 in 6.2 mi Variable 3.5 mph - N/A   Mostly Cloudy
1:00 PM 53.6 °F - 39.2 °F 58% 30.45 in 6.2 mi NNW 3.5 mph - N/A   Mostly Cloudy
1:30 PM 53.6 °F - 39.2 °F 58% 30.45 in 6.2 mi NW 4.6 mph - N/A   Mostly Cloudy
2:00 PM 55 °F - 40 °F 46% 30.41 in 7 mi North 4.5 mph - -   Mostly Cloudy
2:00 PM 55.4 °F - 41.0 °F 58% 30.42 in 6.2 mi NW 6.9 mph - N/A   Scattered Clouds
2:30 PM 55.4 °F - 39.2 °F 54% 30.42 in 6.2 mi NNW 8.1 mph - N/A   Scattered Clouds
3:00 PM 55.4 °F - 39.2 °F 54% 30.42 in 6.2 mi NNE 11.5 mph - N/A   Mostly Cloudy
3:30 PM 55.4 °F - 37.4 °F 51% 30.39 in 6.2 mi NNE 9.2 mph - N/A   Mostly Cloudy
4:00 PM 55.4 °F - 37.4 °F 51% 30.39 in 6.2 mi NE 9.2 mph - N/A   Mostly Cloudy
4:30 PM 55.4 °F - 37.4 °F 51% 30.39 in 6.2 mi NE 9.2 mph - N/A   Mostly Cloudy
5:00 PM 54 °F - 37 °F 42% 30.36 in 9 mi Calm Calm - -   Scattered Clouds
5:00 PM 55.4 °F - 37.4 °F 51% 30.39 in 6.2 mi ENE 6.9 mph - N/A   Scattered Clouds
5:30 PM 53.6 °F - 37.4 °F 54% 30.39 in 6.2 mi North 5.8 mph - N/A   Scattered Clouds
6:00 PM 51.8 °F - 37.4 °F 58% 30.39 in 6.2 mi NNE 10.4 mph - N/A   Scattered Clouds
6:30 PM 50.0 °F - 37.4 °F 62% 30.39 in 6.2 mi NNE 9.2 mph - N/A   Scattered Clouds
7:00 PM 48.2 °F - 35.6 °F 62% 30.42 in 6.2 mi NNE 4.6 mph - N/A   Mostly Cloudy
7:30 PM 48.2 °F - 35.6 °F 62% 30.42 in 6.2 mi NE 5.8 mph - N/A   Overcast
8:00 PM 48.2 °F - 37.4 °F 66% 30.42 in 6.2 mi SSW 5.8 mph - N/A   Overcast
8:30 PM 48.2 °F - 37.4 °F 66% 30.42 in 6.2 mi SSE 4.6 mph - N/A   Overcast